Flag for Pakistan Weather past 2 weeks in Gujranwala, Pakistan

55 °F


Feels Like: 55 °F
Forecast: 53 / 76 °F
Wind: 5 mph from Northwest

Location: Lahore Airport

Current Time: Nov 27, 2015 at 5:13:30 AM

Latest Report: Nov 27, 2015 at 4:25 AM

Visibility: 2 mi

Pressure: 29.89 "Hg

Humidity: 77%

Dew point: 48 °F

Location of GujranwalaLocation

Historic Weather in Gujranwala — Graph


Gujranwala temperature yesterday

Maximum temperature yesterday: 77 °F (at 2:25 PM)
Minimum temperature yesterday: 54 °F (at 7:30 AM)
Average temperature yesterday: 65 °F

Past Weeks' High & Low Weather Summary

High82 °F (Nov 15, 2:25 PM)94% (Nov 18, 7:30 AM)30.15 "Hg (Nov 18, 7:30 AM)
Low52 °F (Nov 18, 7:30 AM)23% (Nov 19, 2:55 PM)29.89 "Hg (Nov 14, 2:25 PM)
Average68 °F58%30.00 "Hg
* Reported Nov 12 3:25 AM — Nov 27 3:55 AM, Gujranwala, Weather by CustomWeather, © 2015

Note: Actual official high and low records may vary slightly from our data, if they occured in-between our weather recording intervals... More about our weather records


Gujranwala weather history for previous 24 hours

Time TempWeatherWind HumidityBarometerVisibility
3:55 AM
Fri, Nov 27
55 °FClear.3 mph77%29.92 "Hg2 mi
2:55 AM55 °FClear.5 mph72%29.92 "Hg2 mi
2:25 AM55 °FClear.7 mph72%29.92 "Hg2 mi
1:55 AM55 °FClear.5 mph72%29.92 "Hg2 mi
1:25 AM57 °FClear.5 mph67%29.92 "Hg2 mi
12:55 AM57 °FClear.5 mph67%29.92 "Hg2 mi
12:25 AM59 °FClear.5 mph63%29.92 "Hg2 mi
11:55 PM
Thu, Nov 26
59 °FClear.7 mph63%29.95 "Hg2 mi
11:25 PM61 °FPassing clouds.5 mph59%29.95 "Hg2 mi
10:55 PM61 °FPassing clouds.5 mph59%29.95 "Hg2 mi
10:25 PM63 °FPassing clouds.3 mph59%29.92 "Hg2 mi
9:55 PM63 °FPassing clouds.No wind59%29.95 "Hg2 mi
9:25 PM63 °FPassing clouds.No wind56%29.95 "Hg2 mi
8:55 PM63 °FPassing clouds.5 mph56%29.95 "Hg2 mi
8:25 PM64 °FHaze.6 mph49%29.95 "Hg2 mi
7:55 PM64 °FHaze.5 mph49%29.95 "Hg2 mi
7:25 PM66 °FPassing clouds.9 mph46%29.95 "Hg2 mi
6:55 PM66 °FPassing clouds.9 mph46%29.95 "Hg2 mi
6:25 PM66 °FPassing clouds.12 mph46%29.92 "Hg2 mi
5:55 PM68 °FPassing clouds.16 mph43%29.92 "Hg2 mi
4:25 PM73 °FScattered clouds.16 mph36%29.92 "Hg2 mi
4:00 PM75 °FScattered clouds.14 mph34%29.92 "Hg3 mi
3:55 PM75 °FScattered clouds.9 mph34%29.92 "Hg4 mi
3:25 PM77 °FScattered clouds.9 mph32%29.92 "Hg4 mi
2:55 PM77 °FScattered clouds.3 mph32%29.92 "Hg4 mi
2:25 PM77 °FScattered clouds.3 mph32%29.92 "Hg4 mi
1:55 PM75 °FPassing clouds.3 mph34%29.92 "Hg4 mi
1:25 PM75 °FPassing clouds.5 mph34%29.95 "Hg4 mi
12:55 PM75 °FHaze.3 mph34%29.95 "Hg3 mi
12:25 PM73 °FHaze.6 mph36%29.95 "Hg3 mi
11:55 AM73 °FHaze.3 mph36%29.98 "Hg2 mi
11:25 AM72 °FHaze.6 mph38%29.98 "Hg2 mi
10:55 AM70 °FHaze.6 mph40%29.98 "Hg2 mi
10:25 AM68 °FScattered clouds.7 mph43%30.01 "Hg2 mi
9:55 AM64 °FScattered clouds.6 mph52%30.01 "Hg1 mi
9:25 AM61 °FScattered clouds.3 mph59%29.98 "Hg2 mi
8:55 AM59 °FScattered clouds.No wind63%29.98 "Hg2 mi
8:00 AM55 °FScattered clouds.3 mph77%29.98 "Hg2 mi
7:30 AM54 °FBroken clouds.5 mph82%29.95 "Hg2 mi
5:00 AM55 °FPassing clouds.3 mph77%29.92 "Hg2 mi
Weather by CustomWeather, © 2015

See weather overviewHow to use our weather pages